| time (UTC) | temp F | wind direction | speed knots | gust knots | rain 1hr in | rain 24hr in | rain mn in | humidity % | barometer mb |
| 20260504204416 | 73 | 275 | 8.7 | 0.0 | 0.00 | 0.00 | 0.00 | 82 | 1008.0 |
| 20260504201411 | 75 | 280 | 8.7 | 0.0 | 0.00 | 0.00 | 0.00 | 77 | 1009.0 |
| 20260504194407 | 75 | 280 | 8.7 | 0.0 | 0.00 | 0.00 | 0.00 | 77 | 1009.0 |
| 20260504191402 | 76 | 280 | 8.7 | 0.0 | 0.00 | 0.00 | 0.00 | 73 | 1009.0 |
| 20260504181352 | 77 | 278 | 8.7 | 0.0 | 0.00 | 0.00 | 0.00 | 67 | 1009.0 |
| 20260504174347 | 77 | 290 | 9.6 | 0.0 | 0.00 | 0.00 | 0.00 | 67 | 1009.0 |
| 20260504171343 | 79 | 278 | 9.6 | 0.0 | 0.00 | 0.00 | 0.00 | 59 | 1009.0 |
| 20260504141315 | 86 | 272 | 17.4 | 0.0 | 0.00 | 0.00 | 0.00 | 34 | 1007.0 |
| 20260504081222 | 99 | 279 | 12.2 | 0.0 | 0.00 | 0.00 | 0.00 | 13 | 1006.0 |
| 20260504045139 | 91 | 303 | 8.7 | 0.0 | 0.00 | 0.00 | 0.00 | 24 | 1010.0 |
| 20260504042134 | 85 | 297 | 7.8 | 0.0 | 0.00 | 0.00 | 0.00 | 36 | 1011.0 |
| 20260504035130 | 85 | 297 | 7.8 | 0.0 | 0.00 | 0.00 | 0.00 | 37 | 1011.0 |
| 20260504032126 | 79 | 286 | 5.2 | 0.0 | 0.00 | 0.00 | 0.00 | 56 | 1011.0 |
| 20260504025121 | 79 | 286 | 5.2 | 0.0 | 0.00 | 0.00 | 0.00 | 55 | 1011.0 |
| 20260504022116 | 74 | 277 | 5.2 | 0.0 | 0.00 | 0.00 | 0.00 | 75 | 1010.0 |
| 20260504015111 | 74 | 277 | 5.2 | 0.0 | 0.00 | 0.00 | 0.00 | 75 | 1010.0 |
| 20260504012107 | 71 | 270 | 4.3 | 0.0 | 0.00 | 0.00 | 0.00 | 87 | 1010.0 |
| 20260504005101 | 72 | 270 | 4.3 | 0.0 | 0.00 | 0.00 | 0.00 | 87 | 1009.0 |
| 20260504002057 | 72 | 268 | 7.0 | 0.0 | 0.00 | 0.00 | 0.00 | 87 | 1009.0 |
| 20260503235052 | 72 | 261 | 4.3 | 0.0 | 0.00 | 0.00 | 0.00 | 87 | 1009.0 |
| 20260503232048 | 72 | 267 | 7.8 | 0.0 | 0.00 | 0.00 | 0.00 | 86 | 1008.0 |
| 20260503225043 | 72 | 267 | 7.8 | 0.0 | 0.00 | 0.00 | 0.00 | 86 | 1008.0 |
| 20260503222039 | 73 | 267 | 9.6 | 0.0 | 0.00 | 0.00 | 0.00 | 84 | 1008.0 |
| 20260503215034 | 73 | 267 | 9.6 | 0.0 | 0.00 | 0.00 | 0.00 | 84 | 1008.0 |
| 20260503212029 | 74 | 272 | 9.6 | 0.0 | 0.00 | 0.00 | 0.00 | 81 | 1008.0 |